Regional Weather Roundup
Issued by NWS Albany, NY

Home | Current Version | Previous Version | Text Only | Print | Product List | Glossary On
Versions: 1 2 3 4 5 6 7 8 9 10 11 12 13 14 15 16 17 18 19 20 21 22 23 24 25 26 27
000
ASUS41 KALY 240210
RWRALY

NEW YORK STATE HOURLY WEATHER ROUNDUP
NATIONAL WEATHER SERVICE ALBANY NY
1000 PM EDT MON OCT 23 2017

NOTE: "FAIR" INDICATES FEW OR NO CLOUDS BELOW 12,000 FEET WITH NO
SIGNIFICANT WEATHER AND/OR NO OBSTRUCTIONS TO VISIBILITY.

NYZ032-033-038>043-046>054-057>066-NYZ062>081-082-084-240300-
EAST


CITY           SKY/WX    TMP DP  RH WIND       PRES   REMARKS
ALBANY         CLOUDY    69  57  65 S10       30.04F
GLENS FALLS    CLOUDY    64  57  78 S5        30.04F
POUGHKEEPSIE   CLOUDY    69  61  75 S8G17     30.03F
NEWBURGH       LGT RAIN  68  64  88 SE14      30.06F
MONTGOMERY     CLOUDY    68  62  81 SE7       30.03S
WHITE PLAINS   CLOUDY    68  63  84 SE13      30.06F
ISLIP          CLOUDY    68  65  90 SE13      30.08F
NEW YORK CITY  CLOUDY    71  64  78 SE16G25   30.04F
$$

NYZ005>009-017-018-044>046-055-056-240300-
CENTRAL


CITY           SKY/WX    TMP DP  RH WIND       PRES   REMARKS
FULTON         CLOUDY    67  57  70 SE9       29.82F
SYRACUSE       CLOUDY    69  58  67 SE16G23   29.84F
ROME           CLOUDY    66  58  75 E14       29.93F
ELMIRA         CLOUDY    71  57  61 S18G30    29.83F
BINGHAMTON     CLOUDY    64  57  78 S17G28    29.92F
MONTICELLO     CLOUDY    64  60  87 SE17G23   30.04F
$$

NYZ026>034-041>043-087-240300-
NORTH


CITY           SKY/WX    TMP DP  RH WIND       PRES   REMARKS
WATERTOWN      MOCLDY    69  57  65 SE10G22   29.82F
FORT DRUM      NOT AVBL
OGDENSBURG     FAIR      62  55  80 SE3       29.87F
MASSENA        CLOUDY    63  56  78 E6        29.92F
SARANAC LAKE   CLOUDY    63  55  75 S8G18     29.97F
PLATTSBURGH    CLEAR     65  54  67 SE10      29.99F
$$

NYZ001>004-010>016-019>021-085-240300-
WEST


CITY           SKY/WX    TMP DP  RH WIND       PRES   REMARKS
NIAGARA FALLS  MOCLDY    70  54  56 S17G26    29.65F
BUFFALO        CLOUDY    70  53  54 S21G29    29.68R
DUNKIRK        CLOUDY    69  56  62 S17G32    29.65R
JAMESTOWN      LGT RAIN  57  55  94 SW17G29   29.72R
WELLSVILLE     CLOUDY    66  53  63 S21G33    29.80F
ROCHESTER      CLOUDY    71  57  61 S20G29    29.72F
PENN YAN       CLOUDY    69  55  60 S15G24    29.81F
$$

             KEY
       WCI = WIND CHILL INDEX
       VSB = VISIBILITY
       HX  = HEAT INDEX
$$




USA.gov is the U.S. government's official web portal to all federal, state and local government web resources and services.